CAPE
1757 1629 1578 1837 1785 1853 1794 1955 1772 1689 1697 1859 1917 2078 2335 2381 2467 2428 2475 2522 2194 2496 2468 2220 2137 2116 1940 1686 1900 2244 3016 2051 2207 1811 1172 1176 1461 1692 2466 2702 2624 2742 2989 2768 2691 3158 3206 2832 2456 3036 2513 2646 2704 2044 902 621 561 386 288 247 131 138 125 190 370 246 304 287 423 344 314 433 503 732 500 267 306 187 154 73 3 12 49 98 186
1459 1661 1508 1818 1670 1788 1850 1959 1926 1867 1950 2098 2188 2212 2556 2567 2438 2271 2285 2453 2244 2247 2755 2748 2434 2225 1877 1771 1803 1734 1822 1878 1802 1954 1370 1046 1372 1832 2308 2410 2349 2806 3145 3194 2871 3093 3324 2842 3005 3500 2487 2376 2204 1283 940 786 396 367 131 28 234 270 7 1 13 47 87 420 405 386 3 255 408 348 418 215 218 70 6 2 0 0 0 0 14
1179 1239 1398 1494 1692 1790 1937 1896 1930 1864 1976 2084 2461 2528 2709 2711 2648 2530 2324 2352 2341 2390 2664 2704 2680 2134 1675 1415 1870 1528 979 844 1302 1456 1540 1456 1551 2644 2995 2777 2706 2820 3397 3479 3410 3314 3734 2992 2933 2834 1968 2041 1979 1041 958 605 540 246 84 83 111 208 208 150 123 151 7 51 58 14 118 2 648 456 142 200 67 34 3 1 0 0 0 0 0
1048 1252 1386 1492 1708 1744 2059 2016 1989 1892 2034 2131 2337 2524 2650 2972 2944 2747 2618 2579 2750 2749 2872 2774 2568 2466 2175 1684 1572 1561 1300 1234 1508 1981 2517 2227 2482 2350 2539 3280 3623 3176 2812 3263 3016 3146 3442 2659 2526 1905 1855 1403 1163 840 748 418 404 351 252 84 222 228 49 291 369 564 170 42 34 297 240 0 18 561 337 394 201 194 3 11 0 6 0 0 0
1202 1224 1502 1462 1596 1640 1966 1890 1686 1895 2035 2095 2386 2552 2778 2992 3078 3088 2990 2840 2863 2696 2852 2863 2637 2618 2571 2260 1874 1807 2276 2522 2152 2448 3159 3134 2267 2313 2919 3682 3523 3074 2531 2817 3043 2888 2634 2427 1942 1540 1192 1199 960 965 700 297 160 120 584 635 547 371 114 154 628 152 326 332 48 13 228 378 489 274 15 331 75 38 17 4 2 10 0 0 0
1363 1319 1542 1620 1478 1490 1710 1544 1578 1730 1886 2172 2397 2678 2938 3145 3299 3324 3114 3028 2911 2840 2892 2938 2725 2938 3244 2668 2444 2523 2467 2232 2059 1911 1922 1896 1851 1851 3278 3495 3392 2942 2718 2258 2080 2661 2563 2282 1618 1172 1111 1337 1022 478 518 269 62 563 585 585 574 544 542 110 30 311 121 407 205 4 0 162 284 294 125 244 375 15 19 11 11 24 3 0 0
1521 1465 1551 1084 1322 1200 1217 1500 1644 1564 1808 2102 2424 2669 3016 3162 3282 3492 3260 3176 3036 2937 2938 3070 2929 2892 3016 2775 3341 2481 2482 2350 2197 1807 1188 1104 1104 1312 2844 2725 3206 3050 2778 2992 2864 2431 2314 1876 1506 1148 856 1147 890 655 310 174 592 596 337 220 490 648 418 296 22 24 376 242 55 108 362 379 226 154 186 88 396 255 52 11 8 0 2 8 7
1360 1592 1836 1660 1330 1173 1271 1482 1780 1330 1820 1996 2182 2390 2825 3144 3265 3326 3409 3149 2915 2852 2858 3093 2998 2821 3130 2948 2887 2274 1766 1920 1879 1648 1121 1092 2307 2590 3133 2976 3116 2918 1816 2718 2755 2312 1946 1728 1584 1148 792 533 752 584 357 300 483 644 311 462 520 607 436 300 342 384 73 402 375 370 398 488 202 117 24 0 0 0 444 26 9 13 20 8 8
1233 1727 1726 1033 1335 1353 1531 1718 1928 2021 1844 1996 2176 2196 2437 2906 3288 3325 3315 3335 3016 2858 2862 2967 2992 2947 3231 3236 2768 2381 1899 1618 1456 1427 1334 1567 2718 2349 2288 1986 2306 2319 2194 2440 2243 1846 1578 1592 1366 964 654 728 691 462 548 90 228 405 798 572 577 495 314 279 307 358 390 449 450 819 236 275 115 51 105 173 2 71 14 26 22 20 15 11 28
1071 1530 2007 2085 1994 1858 1624 1846 2166 2065 2007 2076 2046 2112 2580 2982 3295 3338 3297 3219 3186 3248 2989 2838 2839 3007 3276 3167 2727 2578 2224 2039 1602 1430 1450 1915 2364 2406 2592 2325 1898 2054 2283 2465 2341 1670 1393 1239 1030 500 449 316 228 141 180 107 78 60 198 60 30 50 96 68 264 324 292 238 286 487 213 253 169 150 88 132 169 48 25 6 20 17 28 41 36
1002 1188 1841 2118 2077 1692 1404 1440 1903 1964 1979 2068 1984 2093 2501 2878 3181 3280 3395 3588 3435 3158 2736 2722 2780 2956 3362 3067 2796 2746 2660 2353 2104 1664 1837 2681 2892 2293 2332 2545 2094 1693 1561 2024 1927 1544 1470 1036 434 234 262 318 440 413 198 6 12 3 16 63 38 32 104 48 16 32 87 321 254 184 280 84 230 130 82 215 92 20 26 10 26 18 24 14 28
910 1212 1976 2473 2312 1539 1114 1144 1434 1756 1867 1886 1854 2038 2532 2927 3162 3416 3628 3699 3411 3071 2811 2621 2579 2993 3298 3243 3216 3120 2866 2340 2187 1919 2414 2713 2621 2214 2198 2363 2053 1638 1550 1718 1464 1314 1231 739 411 338 338 357 343 338 123 0 2 20 98 178 166 46 85 80 162 147 162 256 140 34 22 12 118 166 78 161 107 141 76 54 30 26 23 30 18
1332 1167 1846 2448 2237 1513 1148 1404 1711 1919 2091 1857 1708 1728 2506 2622 2931 3332 3469 3438 3528 3188 3169 3042 2774 2987 3156 3328 3276 3404 3108 2675 2553 2208 2234 2627 2588 2294 2296 2325 2120 1915 1715 1438 1258 1258 537 660 470 540 453 291 244 150 25 109 104 34 95 20 65 86 10 51 138 131 117 120 60 70 14 30 42 162 92 61 26 65 88 54 38 7 18 18 27
1068 1122 1514 2046 2378 2118 1695 1414 1529 1902 2060 1868 1792 2218 2437 2327 2832 3205 3498 3534 3520 3361 3138 3202 3223 3200 3238 3335 3384 3484 3226 2871 2648 2588 2524 2464 2490 2368 2047 1980 2182 2052 1774 1474 1048 665 429 502 456 395 439 332 288 189 126 74 76 89 66 46 24 72 37 92 49 2 12 40 18 45 30 13 44 18 48 68 54 52 91 36 44 53 33 23 37
1137 697 1192 1604 2224 2259 2035 1799 1748 1799 1751 1714 1979 2296 2293 2285 2806 3125 3492 3696 3617 3419 3244 3243 3272 3299 3293 3306 3433 3428 3425 3028 2949 2994 2866 2502 2368 2284 2054 1944 1986 1793 1530 1685 1029 776 428 435 388 354 453 497 360 254 87 94 100 52 124 126 46 37 90 40 76 28 10 21 30 97 92 57 12 45 16 30 22 24 27 34 51 62 56 47 33
780 943 1038 1553 1979 2323 2250 2097 1775 1636 1872 1850 2081 2162 1985 2297 2776 3158 3376 3752 3774 3679 3383 3413 3485 3349 3276 3302 3345 3446 3389 3048 3076 3096 3086 2680 2496 2351 2021 1925 1852 1720 1520 1234 860 697 612 537 414 366 455 514 477 272 138 87 103 73 80 60 68 14 33 170 296 290 136 141 111 142 168 85 67 17 64 39 88 68 54 102 136 50 49 43 33
548 1144 1263 1762 1782 2058 2132 2230 2044 2030 2075 2162 2448 2250 2286 2604 2890 3093 3215 3415 3788 3875 3719 3516 3646 3392 3377 3326 3278 3420 3271 2969 2828 2967 2657 2438 2387 2044 1901 1687 1570 1494 1414 1215 1197 758 774 611 512 398 445 409 253 171 143 119 140 95 70 152 57 32 194 311 370 252 306 76 40 88 144 162 170 198 167 102 128 108 144 192 198 226 102 53 62
940 1234 1750 1960 1772 1884 2088 2189 2075 2052 1968 2072 2510 2167 2186 2516 2687 2983 3216 3554 3843 3928 3930 3969 3850 3470 3350 3398 3529 3470 3241 3043 2771 2680 2638 2412 2191 2116 1803 1542 1062 1404 1388 1024 1038 1056 964 799 652 532 534 351 224 177 142 139 180 192 112 116 82 118 123 261 328 345 249 238 194 129 115 122 156 170 114 54 63 180 226 250 162 121 127 70 62
730 1084 1837 2414 1942 1900 2121 1932 1880 1869 2252 2387 2335 2240 2504 2558 2520 2606 3168 3169 3472 3524 3620 3835 3816 3593 3326 3340 3491 3516 3178 3015 2838 2646 2466 2039 1786 1912 1626 1480 1180 1654 1529 1291 1110 1054 918 782 733 614 518 304 223 186 320 185 178 216 196 94 84 276 204 27 113 182 218 202 148 136 206 193 148 126 116 45 23 53 154 144 243 228 211 142 159
874 1716 1909 2591 2256 1885 1860 1853 1774 1846 1864 1985 2399 2406 2610 2674 2681 2655 2952 3383 3452 3468 3596 3639 3573 3518 3317 3413 3705 3675 3630 3287 2967 2804 2201 1818 1712 2036 1487 1441 1778 1852 1760 1518 871 841 1096 736 627 490 388 272 245 192 178 238 309 370 144 86 70 111 55 58 72 10 7 38 75 110 188 254 216 156 104 68 84 122 172 193 172 106 72 34 62
1080 1473 1899 2664 2540 1966 1787 1837 1817 1757 1927 2436 2269 1927 1928 2380 2452 2264 2768 3452 3577 3307 3238 3515 3543 3711 3902 3553 3308 3468 3634 3174 2836 2600 2453 1920 1870 1994 1732 2362 2801 2553 2259 1764 1408 1145 1168 996 769 709 541 564 637 441 292 296 582 631 720 357 216 146 114 116 137 148 116 135 126 136 150 196 213 171 76 75 219 182 214 306 198 200 218 166 174
1059 805 1750 2617 2696 2094 1655 1715 1713 1788 2358 2270 1768 1480 1673 2090 2326 2218 2145 3216 2266 2940 3247 3660 3793 3534 3554 3730 3443 3241 3422 3336 2900 2890 2177 2115 2326 2059 2004 2852 2618 2426 2314 1687 1557 1044 976 1040 814 889 1074 966 1074 827 422 290 426 518 381 327 281 266 162 158 281 282 254 201 178 176 197 170 188 123 70 140 205 110 20 10 36 71 120 110 95
569 979 1084 2210 2498 2216 1854 1816 1770 1538 1719 1582 1519 1532 1534 1855 2182 2182 1907 2356 2291 1997 2660 3767 4058 4001 3970 3938 3647 3488 3535 3262 2395 2167 2253 2710 2578 2619 2672 2508 2320 2286 2310 1927 1713 1372 1445 1229 978 932 1029 793 844 686 526 381 287 272 270 219 228 288 345 313 300 310 237 180 198 271 233 197 85 78 120 344 372 161 22 27 48 66 88 72 53
755 797 514 1726 2307 2463 2359 2116 1874 1581 1856 1710 1618 1384 1370 1526 1669 1602 1628 1675 1777 1768 1826 3154 3824 4053 4086 4254 4297 3718 3114 2821 2608 2879 3109 2558 3337 2583 2282 2358 2218 2422 2144 2283 2174 1660 1640 1500 1139 1008 904 963 940 676 630 374 178 105 164 264 354 375 317 324 313 278 229 192 224 302 266 163 86 125 195 246 241 132 144 224 333 318 254 153 306
1572 1866 1537 2011 2201 2741 3080 2508 2112 1807 1198 1841 1701 1431 1549 1378 1183 1114 1432 1423 1066 1058 992 1984 3105 4148 4167 4566 3924 3533 3333 3131 2959 2678 2596 3171 2624 2097 1770 1924 2006 1736 1610 1946 1961 2022 2110 1904 1500 1400 1386 1424 1106 999 766 263 68 55 112 256 399 432 330 288 407 460 336 329 231 226 174 163 188 175 186 128 14 40 47 389 306 153 221 627 491
2597 2823 2305 2392 3128 3834 4782 3864 2593 2092 1040 2078 2303 1485 1028 1136 1228 1051 1059 1046 1160 1260 1018 1265 2949 4094 4123 4290 4431 3339 3820 3601 2572 2231 2707 2993 2300 1703 1716 1548 1251 888 1568 1772 1776 1683 1682 1907 1805 1766 1718 1496 1150 958 558 197 32 77 160 280 410 443 387 414 514 466 608 630 412 483 419 265 229 200 157 61 84 26 24 48 104 886 978 1326 1292
2098 3223 3095 3600 4191 3949 4233 4653 2910 1539 1239 1582 1770 1444 1150 1788 1596 1122 1053 1149 1674 1944 1834 1344 1844 3419 3880 4166 4106 3969 4279 3666 3154 3018 3241 2819 2207 1905 1747 1468 1383 1431 1464 1534 1326 1288 1226 1556 1580 1548 1417 1368 937 446 200 92 151 256 330 453 458 353 282 424 513 400 396 371 489 549 602 435 298 274 181 138 52 15 145 563 559 896 1119 574 825
3738 3482 3424 3528 4146 4345 4374 4356 3004 2081 1792 1490 1744 2008 1727 1741 1634 1506 1089 1359 2325 1811 1435 1718 2796 4323 4503 4560 4036 4188 3782 3781 3283 3634 3237 2655 2341 2095 1982 1952 2012 1924 1282 1112 1018 1031 1157 1030 1006 906 722 448 190 98 62 42 103 307 484 566 500 303 267 460 658 719 592 377 337 266 112 169 204 219 272 475 369 486 1090 792 720 570 234 200 333
3654 3898 3885 3703 3434 3944 4202 3612 3384 2660 2209 1822 1917 2436 2658 2337 1770 2246 1479 2024 1998 2362 2320 1893 2721 3750 4166 4769 4829 4276 4088 3922 3791 3450 2940 2336 2301 2588 2685 2706 2252 1650 1096 951 793 805 766 522 451 307 147 143 119 176 144 59 68 373 608 564 633 749 628 570 704 736 809 787 704 567 376 428 673 1221 610 550 596 582 1306 809 680 434 303 236 255
2594 3709 3456 3768 3672 3732 3900 4234 4430 3405 3234 2780 3104 3628 2976 2676 2240 2046 2212 2117 2043 3231 3401 2630 2139 3226 4244 5476 5188 4461 4335 4068 4106 3664 3057 2478 2255 2360 2329 2432 2092 1584 1186 1037 812 795 714 464 494 448 270 128 146 176 46 0 64 362 771 887 792 814 830 817 876 912 807 644 517 605 727 591 630 434 454 493 258 178 151 576 959 804 901 788 450
30 731 3299 3997 4104 3965 4114 4452 4832 4561 4364 4204 3860 3431 2998 2894 3075 3178 3438 2446 2068 4301 4420 3976 3820 3766 4510 5106 4876 4355 4113 3815 3370 3074 2720 2746 2622 2628 2598 2342 2054 1932 1651 1505 1363 1439 912 635 554 593 438 419 357 64 0 0 19 568 912 1105 970 978 865 802 867 937 1004 782 584 569 429 1040 852 811 755 261 160 156 198 184 176 151 225 654 1045
0 902 3198 4386 4452 4737 5181 5197 5096 4822 4761 4471 4684 4311 4152 3812 3822 3690 3545 2784 3483 3520 3612 4174 3939 5016 5596 4798 4153 3890 3706 3412 3002 2701 2493 2484 2570 2626 2473 2372 2140 1905 2060 1883 1793 1624 857 381 382 442 534 527 228 73 0 0 441 642 941 1068 1012 958 777 1026 836 602 750 775 758 753 792 1153 1196 1002 811 1244 946 686 533 558 491 310 232 163 172
1784 2000 2848 3771 4303 4716 5700 5616 5382 4775 4727 4601 4857 4583 4572 4072 4542 4401 4393 3740 3334 3632 4419 4224 5337 5268 4435 4470 4212 3951 3664 3377 3186 2988 2767 2622 2540 2442 2366 2290 2226 2087 1904 1893 1720 1392 854 462 518 597 469 350 195 0 0 376 578 641 619 738 752 782 756 890 864 910 700 893 1430 1656 1503 1456 1573 1090 798 1048 1172 1105 913 246 172 212 234 154 102
1138 1934 1454 3165 4431 4452 5506 5764 5493 4915 4626 4860 5114 4890 4839 4516 4616 4574 4446 4555 4679 4744 5241 5219 5178 5002 4270 3943 3836 3607 3386 3190 3083 2938 2873 2776 2614 2558 2459 2378 2240 2046 2045 1802 1485 1262 1024 801 765 704 448 272 340 61 0 298 505 523 499 542 993 1030 948 784 1108 1080 842 1094 1379 1231 1469 1070 909 973 1059 920 1003 1235 1073 926 908 1030 743 599 514
1606 1417 1481 2927 4258 4360 5090 5556 5457 5035 4690 5246 5397 5301 5324 4659 4647 4678 5162 5558 5350 5550 5411 4979 4772 4611 4608 4365 3932 3532 3195 3135 3335 3178 2832 2652 2600 2542 2492 2331 2085 1742 1703 1580 1344 1134 1051 995 775 632 550 360 179 84 0 0 128 307 293 232 712 870 1006 1107 1168 1274 1058 936 1191 988 1037 1025 906 1002 1104 1008 865 1061 931 756 647 529 417 600 743
1607 3066 3531 3872 3946 4232 4148 4970 4776 4695 4962 4987 5348 5186 5007 3990 4121 4907 5252 5343 5528 5829 5173 4962 4538 3982 3957 3664 3428 3316 3268 3366 3293 3244 3161 3067 2887 2482 2356 2116 1821 1502 1566 1453 1204 804 797 921 867 691 647 535 346 0 0 0 12 282 202 102 620 1044 1098 1014 1186 1018 998 1215 1245 1034 487 585 449 621 1161 359 303 507 240 273 342 528 726 682 528
1728 2195 2984 3531 4116 4014 4172 5368 4965 4496 4428 5052 5153 4630 4049 4286 4981 5224 5622 5509 5571 5293 5031 5380 4820 4046 3796 3622 3456 3358 3423 3330 3449 3399 3130 2876 2782 2911 2667 2394 1761 1330 1110 1101 1048 829 1016 1058 990 925 778 789 398 205 0 0 22 131 81 473 688 1008 1131 1272 1362 1353 1470 1336 1058 553 690 686 620 633 891 178 0 0 4 81 165 176 266 362 164
1000 1949 2411 4316 4404 4336 4779 5014 4768 4906 5220 4832 4588 5257 5284 5544 5505 5570 5791 5722 5483 5380 5442 5328 4730 4296 3879 3426 3113 2764 2946 3022 2908 2928 2914 2886 2782 2643 2526 2112 1932 1388 1020 796 935 1010 1099 1137 1018 947 756 646 473 892 0 0 160 158 80 574 840 730 1082 534 1098 1448 1438 1338 1070 598 579 800 818 838 510 144 58 0 12 24 39 83 168 148 67
1492 2088 3056 3902 3741 3822 4041 4540 4450 4220 4601 5341 5475 5340 5405 5386 5519 5767 5862 5509 5132 4891 4633 4420 4386 3890 3476 3344 2842 2894 3070 2804 2650 2627 2474 2323 2153 2079 1886 1821 1534 1593 1484 1143 712 710 669 759 482 751 488 560 390 1439 279 198 212 0 0 673 874 697 321 1339 1713 1521 1170 946 1114 602 403 320 463 828 401 152 43 2 51 82 141 205 95 81 36
1020 1840 2920 3796 4086 4222 4341 4326 4751 5082 4611 4906 4800 5185 5281 5494 5753 5693 5341 5318 5143 4994 4502 4193 3595 3216 3408 3108 3042 3121 2889 2720 2700 2553 2398 2280 2003 1836 1416 1562 1477 1311 1085 1032 879 818 909 832 642 884 840 574 424 927 503 228 0 0 0 933 583 1357 870 769 101 203 790 720 793 532 117 54 79 261 200 77 0 0 44 84 121 93 29 21 62
1817 2641 3506 3972 4028 4076 3928 4074 3997 4491 4317 4700 5016 4972 5185 5452 5489 5470 5357 5203 5008 4498 4052 3780 3504 3188 2714 2860 3074 2867 2972 2938 2684 2486 2055 1874 1625 1754 1616 1586 1518 1260 847 1203 936 814 887 797 495 754 473 535 560 570 518 0 0 0 0 278 672 672 328 204 1236 626 326 675 580 605 510 73 0 0 0 0 0 0 0 6 30 52 106 0 0
2424 3293 3372 3440 3295 3418 3096 3489 4111 4218 4163 4277 4707 5158 5490 5491 5295 5367 5241 4936 4551 4258 4060 3708 3435 3238 3050 2910 2764 3012 2800 2839 2654 2541 2309 1616 1440 1719 1811 1846 1500 1197 966 950 864 851 718 605 462 406 193 405 430 555 1685 0 0 0 0 0 736 734 1055 1042 531 652 938 671 506 734 521 92 0 0 0 0 0 0 0 0 5 0 0 0 0
3255 3354 3387 3164 3270 3219 3280 3892 3671 4090 4470 4630 5147 5392 5294 4852 4704 4388 4504 4879 4496 4335 3950 3576 3324 3114 2850 2699 2698 2710 2532 2562 2688 2681 2348 1921 1545 1744 1864 1758 1197 1032 1020 966 733 541 222 253 381 414 293 500 964 861 290 0 0 0 0 0 0 358 212 876 390 699 797 595 816 684 399 91 0 0 0 0 0 0 0 0 0 0 0 0 0
3486 3206 3014 2694 3550 4485 4150 3696 3380 3520 3300 3813 4505 4315 3936 4052 4440 4323 4530 4422 4218 4022 3642 3267 2892 2679 2320 2177 2526 2583 2620 2403 2506 2408 2104 1706 1603 1640 1612 1388 919 609 502 567 596 457 280 210 185 174 247 235 791 1294 171 0 0 0 0 0 0 0 27 255 990 1055 1365 1132 1333 654 223 0 0 0 0 0 0 0 0 0 0 0 0 0 0
2480 2720 3725 3846 3648 3639 3462 2894 2346 1887 1909 2505 3243 4067 4014 3934 4015 4458 4205 4002 3867 3628 3324 2992 2689 2385 2358 2432 2573 2439 2452 2480 1966 1751 1562 1472 1363 1190 1103 860 563 344 425 578 583 450 512 340 216 211 205 252 579 1256 710 0 0 0 0 0 0 0 0 0 693 1021 566 701 489 232 0 0 0 0 0 0 0 0 0 0 0 0 0 0 0
2320 2774 2970 3381 3567 3733 3863 3967 4119 4335 4844 5122 4387 4040 4278 4471 4615 4527 4317 4138 3738 3400 3039 2781 2640 2486 2543 2329 2607 2472 2302 1908 1940 1911 1614 1185 1155 912 781 602 300 222 414 578 693 477 405 296 218 152 145 333 461 644 646 4 0 0 0 0 0 0 0 0 121 404 52 0 31 105 0 0 0 0 0 0 0 0 0 0 0 0 0 0 0
1320 1652 1670 1878 2120 2180 2236 2273 2502 3156 3525 4000 4541 4934 4931 4776 4516 4390 4100 3653 3124 2802 2674 2766 2844 2725 2681 2528 2271 2067 1655 1400 1455 1476 1614 1332 789 669 619 477 218 196 355 545 474 268 129 42 60 22 34 157 357 358 627 608 29 1 0 0 0 0 0 0 0 232 106 0 0 0 0 0 0 0 0 0 0 0 0 0 0 0 0 0 4
1503 1664 1758 1614 1556 1843 2283 2316 2037 1810 2190 3149 4029 4080 4008 3990 3768 3448 3228 3148 2994 2753 2730 2778 2730 2663 2511 2228 1764 1368 1370 1237 1253 1126 1056 798 510 386 397 472 328 394 432 348 234 70 27 89 98 112 173 257 466 708 779 519 722 806 528 124 83 36 9 48 27 10 14 0 0 0 0 0 0 0 0 0 0 0 0 0 0 0 0 3 0
1514 1501 1806 2093 2325 2538 2750 3042 3295 3500 3545 3508 3518 3596 3727 3730 3582 3367 3224 2933 2553 2200 2553 2436 2403 2380 2164 2037 1516 1287 1363 1204 1304 1179 1714 1585 1530 584 585 756 1488 1434 1103 471 604 323 323 242 215 252 300 295 522 654 964 556 1616 421 430 224 157 90 49 68 291 10 124 58 29 1 14 0 7 11 14 2 0 0 4 5 1 4 10 12 9
1905 1732 2111 2570 2906 3115 3171 3199 3225 3340 3483 3545 3477 3408 3244 3019 2988 2648 2769 2566 2564 1978 2256 1955 1745 1652 1839 1561 1285 1177 1133 1106 836 950 498 454 466 536 616 1374 461 0 0 0 0 197 129 219 513 570 385 712 603 220 1118 591 532 219 0 6 0 4 66 70 6 0 314 136 176 208 192 147 56 9 0 10 14 10 13 4 0 0 0 3 7
2277 2269 2224 2341 2466 2664 2879 2838 2910 3093 3179 3228 3290 2979 2772 2412 2451 2699 2542 2818 2475 2079 1962 1892 1555 1482 1351 1246 1161 1266 1345 1317 1025 817 757 676 557 457 462 375 218 0 0 0 0 0 0 0 13 334 4 0 290 256 275 33 106 210 0 0 0 0 0 0 0 28 8 10 40 78 97 86 72 13 1 0 7 5 2 11 9 8 5 8 0
Wind_Speed
5 7 8 9 9 8 7 6 7 8 8 8 8 7 8 7 7 8 8 9 8 10 10 9 9 8 6 6 5 4 2 3 4 4 5 6 7 7 9 9 9 9 9 9 9 10 10 10 10 12 16 17 16 15 13 15 16 15 15 15 13 13 12 13 14 12 11 10 11 11 16 15 18 17 14 15 14 16 16 nan nan nan nan nan 18
6 5 7 7 6 7 6 4 7 9 8 8 9 9 9 9 8 8 8 9 9 9 9 8 8 8 7 6 4 4 4 4 3 3 4 5 6 6 7 8 9 10 10 11 11 11 12 14 15 16 20 19 18 17 17 17 15 15 15 nan 16 14 nan nan nan nan nan 12 11 11 nan 16 17 16 16 15 15 nan nan nan nan nan nan nan nan
5 7 8 7 9 9 6 5 6 7 8 8 8 9 10 9 8 8 8 9 9 10 10 9 7 6 5 4 4 3 3 4 3 3 5 5 8 9 9 10 10 11 12 13 13 14 14 17 20 20 20 20 19 18 18 17 17 15 nan nan 14 15 15 14 16 13 nan nan nan nan 11 nan 16 9 11 14 nan nan nan nan nan nan nan nan nan
7 8 9 8 9 8 8 7 7 7 8 8 9 10 8 9 10 10 8 8 9 10 10 9 7 6 4 4 4 3 3 4 4 4 5 6 8 9 11 12 13 14 16 17 19 18 19 21 21 22 22 19 18 17 18 17 17 17 15 nan 16 13 nan 20 15 19 11 nan nan 11 10 nan nan 15 13 10 14 10 nan nan nan nan nan nan nan
7 9 9 9 10 10 10 8 8 9 9 10 10 10 8 10 11 11 9 8 8 10 11 9 8 7 6 5 4 5 6 6 9 7 8 10 9 11 13 15 15 15 17 20 21 21 22 24 23 22 20 19 19 19 19 18 18 16 17 16 16 13 14 16 19 16 21 14 nan nan 12 10 11 10 nan 10 nan nan nan nan nan nan nan nan nan
7 8 10 11 10 10 11 11 10 9 10 10 11 11 11 10 11 11 9 8 8 9 10 9 9 9 8 7 7 8 8 10 9 10 11 12 12 14 18 19 19 17 18 19 21 22 23 24 22 21 21 20 19 19 21 18 nan 16 19 17 18 18 14 15 nan 20 19 20 16 nan nan 12 12 12 8 13 11 nan nan nan nan nan nan nan nan
8 8 11 12 12 12 13 13 11 11 11 11 11 12 13 10 10 11 9 8 8 9 9 9 9 9 8 8 9 10 10 11 12 13 14 15 17 20 23 24 24 19 20 20 21 21 22 21 21 19 20 20 19 21 19 17 19 18 16 18 19 19 17 15 nan nan 23 19 nan 18 20 15 16 12 14 nan 15 14 nan nan nan nan nan nan nan
8 10 13 13 14 14 15 15 13 12 13 13 12 12 14 13 12 12 10 9 8 9 9 10 9 10 10 10 11 10 12 13 16 16 17 21 22 24 27 25 24 20 20 22 21 21 21 21 21 19 19 19 21 21 20 20 19 19 19 20 19 19 18 17 16 18 nan 22 19 21 20 20 17 18 nan nan nan nan 17 nan nan nan nan nan nan
8 13 14 15 16 15 15 15 15 14 13 14 13 12 13 14 13 13 12 11 9 10 10 11 11 11 11 12 12 13 13 15 18 19 20 24 26 24 24 24 24 22 21 22 21 21 21 22 22 21 21 22 21 21 19 nan 23 21 20 20 18 20 18 20 18 18 16 23 21 22 21 20 20 nan 22 18 nan nan nan nan nan nan nan nan nan
8 14 16 16 16 17 17 17 17 15 14 14 13 13 13 14 13 14 13 12 12 12 12 13 14 13 13 13 14 15 16 17 18 21 24 28 26 25 24 21 22 23 24 24 24 22 23 23 22 23 23 21 22 21 24 26 nan nan 18 nan nan nan nan nan 17 19 19 21 22 21 22 21 23 22 nan 21 24 nan nan nan nan nan nan nan nan
5 13 18 17 17 18 19 18 18 17 15 15 14 14 14 14 13 13 14 14 13 13 14 15 16 16 16 15 16 17 19 20 22 22 26 27 24 23 23 23 22 23 24 27 25 25 25 23 20 23 24 25 25 22 23 nan nan nan nan nan nan nan 20 nan nan nan nan 22 21 22 21 nan 24 21 nan 24 nan nan nan nan nan nan nan nan nan
4 9 16 19 19 18 18 19 19 19 17 16 15 15 16 16 15 15 15 15 14 14 15 16 17 19 19 19 19 20 21 22 23 24 25 24 23 22 23 23 23 24 24 27 27 28 26 24 23 24 26 24 28 25 24 nan nan nan nan 25 23 nan nan nan 20 22 21 23 21 nan nan nan 26 23 nan 26 26 25 nan nan nan nan nan nan nan
14 10 11 18 20 20 19 20 20 19 17 17 17 17 17 17 18 18 18 17 16 16 17 17 19 20 21 21 21 22 22 22 23 23 24 24 23 23 23 24 25 25 27 27 27 30 30 30 27 26 25 27 25 27 nan 29 26 nan nan nan nan nan nan nan 21 22 23 24 nan nan nan nan nan 27 nan nan nan nan nan nan nan nan nan nan nan
20 18 13 15 21 22 22 23 23 20 20 19 19 17 17 18 19 19 20 20 19 18 18 19 20 21 22 22 22 23 22 21 22 22 23 23 23 22 23 25 27 27 28 27 26 30 28 30 30 29 28 29 28 29 30 nan nan nan nan nan nan nan nan nan nan nan nan nan nan nan nan nan nan nan nan nan nan nan nan nan nan nan nan nan nan
19 18 15 16 22 25 25 26 26 24 24 22 20 19 18 18 19 20 20 20 20 19 18 19 21 22 22 22 22 22 22 21 21 22 21 21 22 24 24 26 27 28 28 29 29 28 29 29 30 29 30 28 30 29 nan nan 31 nan 28 28 nan nan nan nan nan nan nan nan nan nan nan nan nan nan nan nan nan nan nan nan nan nan nan nan nan
15 17 19 21 23 25 24 25 26 26 25 22 22 20 19 19 19 20 19 19 19 18 17 18 20 21 21 21 21 21 22 21 21 21 20 20 23 24 26 27 28 29 28 30 31 30 31 30 29 30 30 32 32 32 31 nan 32 nan nan nan nan nan nan 27 26 25 25 26 27 28 29 nan nan nan nan nan nan nan nan 29 27 nan nan nan nan
13 14 15 20 21 22 22 22 23 23 23 22 21 21 20 19 19 20 19 18 17 17 17 18 19 19 19 20 21 22 22 21 20 21 22 22 23 24 26 26 28 29 31 32 32 35 32 32 32 31 32 32 35 36 35 32 30 nan nan 30 nan nan 27 28 28 27 26 nan nan nan 31 31 30 29 28 28 27 28 29 29 29 26 26 nan nan
11 13 12 15 18 21 21 21 24 25 26 25 25 24 21 19 19 19 18 16 15 15 16 17 17 17 19 20 21 21 21 21 21 22 22 22 22 23 23 25 29 30 32 34 34 37 37 38 36 34 33 34 35 37 37 35 32 31 29 27 nan 26 27 28 30 29 28 27 27 27 28 30 32 30 29 nan nan 30 29 30 29 27 27 nan nan
9 10 11 12 17 20 22 25 27 27 27 27 27 27 23 20 17 17 16 14 14 14 15 15 17 17 18 20 20 20 20 19 19 20 21 20 22 24 22 27 28 32 33 35 36 39 42 44 39 35 34 34 35 36 36 34 33 32 31 nan nan 26 26 nan 31 32 32 31 30 28 29 29 29 29 29 nan nan nan 29 30 30 28 26 26 25
5 6 8 13 18 23 25 26 28 29 29 29 31 28 26 22 19 15 13 12 12 13 15 15 17 18 18 18 18 18 18 18 18 19 20 22 25 24 25 29 30 34 36 37 39 43 47 48 42 34 31 34 35 39 40 37 34 32 32 nan nan 30 nan nan nan nan nan nan nan 31 30 29 29 29 29 nan nan 31 29 29 29 27 nan nan nan
7 1 8 15 17 20 23 23 24 27 28 29 30 30 25 22 20 17 14 14 13 13 14 16 16 17 16 16 16 16 18 18 19 21 23 25 28 28 26 29 33 35 37 37 43 49 50 48 40 31 30 33 37 40 40 37 35 32 32 32 32 32 31 31 33 34 33 31 33 34 32 30 30 29 nan nan 32 32 30 30 29 28 26 27 29
10 6 2 13 17 19 21 20 21 24 27 30 30 29 27 23 20 18 15 13 13 13 13 14 13 14 14 14 15 16 18 19 22 23 27 32 33 29 29 34 38 38 37 42 49 50 46 47 44 36 32 33 37 39 37 32 29 29 29 31 30 29 28 30 34 35 33 32 32 33 33 33 33 32 nan 32 33 32 nan nan nan nan 28 28 nan
16 10 3 8 17 19 20 22 21 23 25 28 29 29 27 24 20 18 17 15 15 13 11 13 11 11 13 13 15 17 20 23 27 29 35 38 38 38 37 40 44 42 40 45 49 47 45 47 47 42 37 36 38 39 33 26 23 23 24 25 24 24 27 32 36 37 34 33 31 31 33 34 nan nan 35 34 33 32 nan nan nan nan nan nan nan
21 14 2 5 17 20 22 24 21 21 23 26 27 29 28 23 19 19 20 19 18 13 11 12 12 10 11 14 17 21 25 29 31 34 40 42 42 42 41 45 49 45 42 43 47 47 47 49 50 48 44 40 39 37 31 26 25 27 28 29 28 27 30 34 36 36 36 36 33 32 32 33 nan 33 33 34 35 36 36 35 32 31 30 28 28
21 14 5 8 18 23 24 26 25 24 25 24 25 28 29 25 20 19 19 19 20 17 14 12 14 15 14 16 22 26 30 33 36 38 43 45 45 45 43 47 45 43 40 41 41 44 45 47 47 48 46 44 43 39 35 31 nan nan 35 35 34 35 36 38 39 37 34 35 36 35 35 35 35 34 32 32 nan nan nan 35 33 31 31 34 35
22 16 12 12 16 22 25 26 25 24 25 24 24 27 28 25 21 19 20 21 20 16 10 10 14 16 16 21 27 31 34 38 40 42 46 47 47 48 48 46 43 42 39 41 43 44 44 46 46 47 47 46 43 41 38 35 nan nan 38 38 38 38 38 39 40 37 33 32 34 36 38 36 35 33 33 nan nan nan nan nan 33 38 36 34 33
18 14 13 13 16 19 21 23 23 22 23 23 25 27 28 25 21 19 21 22 19 12 7 9 13 18 20 24 30 31 33 38 41 44 46 47 49 50 50 48 43 41 45 46 47 48 47 48 49 49 50 49 46 43 41 nan 37 37 39 41 41 38 37 38 39 38 33 30 33 38 41 39 35 33 31 30 nan nan 37 40 36 35 35 35 33
24 16 10 11 14 15 18 20 20 20 21 21 24 27 28 26 21 18 20 24 20 13 12 15 20 21 20 25 29 30 34 39 42 44 47 47 46 45 46 45 43 45 49 51 52 52 50 50 52 52 52 50 48 nan nan nan 41 40 41 42 43 41 40 39 39 38 34 29 31 37 38 38 37 34 33 35 34 36 44 40 38 35 33 33 33
20 16 11 11 12 14 16 18 18 19 21 23 25 27 27 26 22 19 20 23 22 19 19 21 23 24 25 24 25 28 33 39 44 46 47 47 45 43 42 43 46 48 47 50 53 54 53 53 53 53 54 52 50 47 45 nan nan 43 43 43 43 42 41 41 39 39 36 29 28 34 36 31 37 43 42 40 42 45 44 44 42 40 40 38 37
18 17 14 13 10 11 16 18 19 21 23 25 27 28 29 28 24 21 20 22 23 24 25 25 24 23 24 27 27 27 32 37 39 42 45 47 46 45 43 43 46 50 50 51 53 54 55 57 57 57 57 55 53 49 nan nan nan 43 44 43 43 41 40 40 41 40 36 30 27 31 35 33 38 39 39 38 38 41 42 42 41 41 40 39 39
nan 20 18 17 13 11 14 19 22 24 25 26 27 28 28 28 26 24 24 24 26 26 26 28 23 23 22 25 26 28 32 35 37 39 41 43 45 44 44 45 46 48 51 52 55 56 57 58 59 59 60 58 55 nan nan nan nan 43 42 42 41 39 36 37 41 41 38 32 27 30 32 34 37 35 36 37 38 42 38 33 33 35 36 36 36
nan 25 22 20 18 14 13 17 23 25 27 27 28 30 30 28 27 25 27 28 29 28 28 26 20 23 26 29 29 32 34 35 38 41 43 46 46 45 45 46 46 48 48 51 55 57 58 59 59 59 60 59 56 nan nan nan 47 46 45 42 40 36 34 36 38 40 40 35 29 27 28 29 29 28 30 32 35 33 31 33 35 33 32 32 34
32 23 22 21 20 16 12 15 20 24 27 28 30 31 31 29 29 28 29 30 31 30 32 30 26 30 32 31 33 35 35 37 40 43 45 46 47 46 46 46 47 48 49 51 56 59 60 60 60 60 59 60 57 nan nan 54 49 46 46 43 37 33 32 35 37 38 40 37 31 27 26 25 22 25 26 27 28 29 37 39 37 33 31 30 30
32 26 23 23 20 17 15 16 19 22 26 29 29 31 33 33 33 31 32 32 33 35 34 33 32 35 37 36 37 39 39 40 41 43 44 46 46 46 46 47 48 49 50 53 55 59 62 63 62 61 60 61 58 nan nan 54 50 47 45 41 35 33 32 32 35 38 41 39 32 26 27 25 21 21 26 25 27 29 31 34 35 34 33 32 33
32 26 25 22 16 15 18 21 20 23 27 29 30 31 34 35 35 35 35 35 36 38 37 35 35 38 39 39 41 41 42 43 44 45 45 45 45 46 47 49 50 50 51 55 58 60 62 63 64 63 61 61 58 nan nan nan 51 46 45 40 33 33 33 33 35 38 38 36 31 26 23 23 24 26 28 28 28 32 34 33 32 33 36 38 39
34 32 29 24 16 16 19 23 24 25 27 29 30 32 35 36 37 38 38 38 38 39 40 40 40 43 45 46 47 46 46 46 47 46 46 46 47 48 49 52 53 53 52 56 59 60 62 63 64 65 62 61 60 nan nan nan nan 44 44 37 34 34 33 33 36 37 38 37 35 35 29 24 22 22 31 34 34 35 36 34 34 34 37 39 38
36 36 33 26 19 19 24 27 26 26 28 28 31 34 37 40 40 40 41 41 40 40 42 45 45 48 49 48 48 48 49 50 50 48 46 46 48 50 52 55 58 57 55 57 59 60 62 64 65 67 65 62 57 59 nan nan nan 43 nan 36 35 34 32 33 34 36 38 39 38 37 32 30 31 29 38 40 nan nan nan nan 36 35 36 36 37
36 39 38 32 24 24 27 27 28 28 29 29 33 37 40 43 43 45 45 44 43 44 45 47 48 50 50 50 50 50 51 52 51 49 47 47 49 51 53 57 59 56 55 56 57 59 62 63 63 64 62 58 54 58 nan nan 44 43 nan 37 34 32 31 29 31 34 35 35 33 33 35 37 38 38 45 42 nan nan nan nan nan nan 36 36 nan
38 39 39 33 27 24 29 30 31 29 31 33 34 37 42 44 45 46 46 47 46 46 47 48 50 51 52 53 52 52 52 53 51 48 47 49 51 54 55 57 57 55 55 56 56 57 60 62 63 61 59 54 49 55 50 44 42 nan nan 35 33 31 31 33 33 31 33 34 37 43 46 46 46 48 50 44 nan nan nan nan 38 36 nan nan nan
38 39 41 37 33 30 30 31 35 33 31 34 35 38 42 45 48 48 49 50 50 50 50 50 52 54 54 54 54 53 54 55 54 49 48 51 53 55 57 58 59 59 60 59 58 57 60 62 62 58 53 48 45 45 43 42 nan nan nan 34 33 33 36 34 34 36 39 41 44 48 53 nan nan 51 46 nan nan nan nan nan 38 nan nan nan nan
41 45 47 42 37 34 31 31 35 38 36 37 40 41 44 47 51 52 53 54 55 55 54 53 53 53 54 55 54 55 56 58 57 51 51 53 55 56 59 61 61 62 64 61 58 57 59 56 54 49 44 43 40 38 43 nan nan nan nan 37 35 37 38 37 40 41 40 41 42 45 47 nan nan nan nan nan nan nan nan nan nan nan 45 nan nan
44 50 47 43 40 40 36 37 41 42 43 44 43 45 48 51 53 56 57 58 57 56 56 56 55 55 56 57 57 57 57 60 59 53 51 54 55 58 59 61 59 61 63 61 56 53 52 49 43 41 39 39 40 38 45 nan nan nan nan nan 37 38 40 41 40 39 40 36 37 42 43 nan nan nan nan nan nan nan nan nan nan nan nan nan nan
52 50 46 45 46 44 46 46 44 45 46 45 48 50 52 53 55 57 58 59 59 60 60 59 59 59 58 56 55 56 60 62 60 56 55 55 56 58 58 58 58 63 62 57 50 43 41 39 38 39 40 39 43 46 51 nan nan nan nan nan nan 37 48 40 39 38 38 37 38 41 47 nan nan nan nan nan nan nan nan nan nan nan nan nan nan
47 48 46 47 52 54 49 46 45 45 47 50 53 53 52 53 56 57 60 61 62 62 61 61 61 60 57 54 55 57 60 63 59 55 55 56 56 58 58 57 61 64 59 52 46 41 38 39 40 41 41 40 43 45 48 nan nan nan nan nan nan nan nan 40 40 41 43 44 42 43 45 nan nan nan nan nan nan nan nan nan nan nan nan nan nan
52 60 63 61 58 58 58 56 52 51 50 50 51 53 55 58 59 60 61 61 61 62 61 61 61 59 56 56 56 56 58 60 55 52 54 56 56 58 58 58 62 62 55 49 44 41 40 40 41 42 42 43 45 47 47 nan nan nan nan nan nan nan nan nan 41 45 45 47 47 51 nan nan nan nan nan nan nan nan nan nan nan nan nan nan nan
59 60 60 61 60 60 61 62 60 59 56 53 53 55 57 58 60 61 61 62 61 61 60 56 54 52 52 55 55 54 54 54 53 51 54 56 57 58 59 59 61 59 53 47 44 44 44 43 43 42 44 47 49 48 50 nan nan nan nan nan nan nan nan nan 47 50 nan nan nan 52 nan nan nan nan nan nan nan nan nan nan nan nan nan nan nan
59 61 60 60 59 58 59 59 59 58 57 57 59 58 58 58 59 60 61 61 61 61 57 49 47 47 49 49 52 52 53 54 54 54 55 56 57 58 60 58 58 56 52 48 46 45 45 nan nan nan nan 48 49 49 51 52 nan nan nan nan nan nan nan nan nan 49 51 nan nan nan nan nan nan nan nan nan nan nan nan nan nan nan nan nan nan
60 61 61 59 58 57 58 59 58 56 56 56 57 56 56 56 56 57 59 61 61 58 54 50 50 48 48 48 50 53 55 54 54 55 57 57 57 56 57 57 55 54 52 50 47 nan nan nan nan 45 46 48 48 47 46 47 50 51 52 53 nan nan nan nan nan nan nan nan nan nan nan nan nan nan nan nan nan nan nan nan nan nan nan nan nan
58 60 60 59 57 57 56 57 57 57 58 57 56 56 56 56 55 56 57 58 58 55 52 52 51 49 50 48 50 51 53 55 53 55 56 54 53 53 55 57 54 50 50 49 47 47 45 44 45 45 47 49 48 47 44 47 54 56 56 55 53 nan nan nan 44 nan 47 nan nan nan nan nan nan nan nan nan nan nan nan nan nan nan nan nan nan
55 57 60 62 62 60 59 59 57 56 57 57 56 56 56 56 57 57 56 57 57 55 52 50 49 50 50 50 52 55 56 56 56 58 58 57 58 60 54 52 56 nan nan nan nan 49 46 44 43 48 47 49 48 47 57 62 64 62 nan nan nan nan nan nan nan nan 40 39 40 41 42 42 nan nan nan nan nan nan nan nan nan nan nan nan nan
56 58 61 63 64 63 61 60 58 57 58 58 56 56 56 59 59 58 57 57 55 54 51 50 50 51 53 53 55 57 58 55 57 58 57 57 55 55 57 58 57 nan nan nan nan nan nan nan nan 50 nan nan 57 60 61 nan 62 60 nan nan nan nan nan nan nan nan nan nan nan nan nan nan nan nan nan nan nan nan nan nan nan nan nan nan nan
Wind_Direction
9 15 21 12 16 2 5 352 352 356 355 346 347 343 338 334 330 341 334 345 344 336 340 344 333 328 343 3 4 348 348 48 41 33 35 10 22 16 5 9 14 12 6 358 352 348 348 343 337 329 320 312 309 310 313 299 298 308 313 314 306 304 306 305 304 302 298 305 297 314 317 316 317 311 310 311 308 303 291 nan nan nan nan nan 294
356 354 6 0 7 357 349 339 346 351 345 345 348 347 343 344 340 339 335 340 343 337 331 329 323 325 331 336 348 342 3 22 32 38 34 358 359 359 3 5 1 353 347 344 340 338 330 329 323 314 304 306 311 311 300 304 303 308 306 nan 314 309 nan nan nan nan nan 302 294 291 nan 318 312 319 329 305 309 nan nan nan nan nan nan nan nan
355 340 349 354 356 350 333 332 330 344 339 343 339 341 341 335 327 331 334 332 332 332 324 321 318 321 330 311 324 335 12 1 2 8 339 357 349 347 347 347 343 336 329 325 320 317 318 308 308 304 311 310 306 302 306 305 299 299 nan nan 298 303 303 297 298 290 nan nan nan nan 294 nan 306 309 303 304 nan nan nan nan nan nan nan nan nan
357 336 340 346 345 343 332 328 324 325 325 331 332 337 323 319 322 325 327 326 318 324 316 321 319 316 323 302 309 320 300 298 315 294 304 312 315 327 324 321 323 321 318 315 305 302 303 304 304 305 305 302 299 296 288 291 298 302 305 nan 300 298 nan 296 288 297 285 nan nan 281 297 nan nan 304 308 305 301 299 nan nan nan nan nan nan nan
347 335 332 335 339 342 336 330 328 334 335 329 327 326 307 327 325 324 320 320 311 313 316 308 305 307 286 289 302 292 283 285 289 295 296 298 311 312 310 308 309 308 306 307 305 310 308 305 303 298 296 294 293 291 293 287 290 298 290 290 295 291 280 279 288 286 289 277 nan nan 274 292 278 290 nan 302 nan nan nan nan nan nan nan nan nan
339 332 327 331 334 332 335 336 339 335 330 325 326 330 327 323 327 322 313 308 310 311 311 303 296 292 294 288 293 296 299 300 305 304 303 302 306 302 304 304 299 303 308 308 309 301 301 301 299 292 289 285 284 280 276 282 nan 292 293 293 295 294 277 277 nan 287 283 288 276 nan nan 276 290 286 307 304 314 nan nan nan nan nan nan nan nan
331 327 320 334 335 337 338 335 336 331 319 313 319 328 331 324 322 320 310 301 302 299 304 291 293 286 297 295 291 294 292 292 294 299 302 305 300 298 297 302 304 307 307 305 302 303 302 299 292 290 282 283 281 279 284 286 281 282 280 283 278 276 283 279 nan nan 286 282 nan 279 280 289 286 290 288 nan 303 308 nan nan nan nan nan nan nan
319 323 323 325 327 336 338 332 328 325 316 317 321 324 326 323 320 318 307 299 291 288 293 288 284 284 289 293 289 291 292 289 294 296 299 293 296 299 301 299 301 308 308 304 302 299 297 293 290 287 284 277 277 280 276 276 278 269 269 273 274 275 271 271 263 257 nan 283 276 280 283 278 283 292 nan nan nan nan 307 nan nan nan nan nan nan
331 314 324 324 325 329 325 323 324 321 320 322 322 317 311 313 312 311 314 306 297 299 289 292 283 282 285 287 291 289 290 290 291 296 299 299 301 301 299 300 301 302 300 298 297 297 293 291 287 284 282 286 288 284 289 nan 263 268 270 269 277 277 273 267 268 264 262 269 278 280 280 287 294 nan 292 297 nan nan nan nan nan nan nan nan nan
343 321 314 314 315 317 319 316 319 319 317 316 316 310 306 302 308 312 314 301 293 297 292 294 295 285 288 293 300 294 289 289 290 296 297 296 300 299 296 298 300 300 298 298 297 297 294 290 295 288 281 285 287 280 276 274 nan nan 276 nan nan nan nan nan 269 267 264 262 271 279 280 281 282 285 nan 295 292 nan nan nan nan nan nan nan nan
7 316 310 309 306 304 309 317 316 315 313 316 313 306 300 298 302 310 304 292 297 300 300 297 294 293 291 296 301 299 296 294 295 296 294 296 297 300 300 300 300 300 302 302 301 299 296 296 295 293 291 291 289 286 287 nan nan nan nan nan nan nan 268 nan nan nan nan 268 272 273 276 nan 280 281 nan 278 nan nan nan nan nan nan nan nan nan
311 295 299 303 302 303 305 310 312 315 316 319 316 306 300 297 296 300 298 297 292 295 297 296 293 295 295 299 301 299 299 296 299 298 297 298 299 301 300 300 302 303 305 303 305 304 304 302 296 293 298 299 298 301 296 nan nan nan nan 274 272 nan nan nan 258 260 261 268 266 nan nan nan 283 286 nan 291 293 286 nan nan nan nan nan nan nan
284 270 293 300 305 305 309 306 305 312 315 323 321 315 308 303 303 300 299 296 291 293 295 297 296 294 294 297 299 297 299 299 299 298 298 299 300 302 302 303 302 304 304 305 307 312 307 301 303 302 303 304 300 296 nan 291 287 nan nan nan nan nan nan nan 267 267 267 263 nan nan nan nan nan 286 nan nan nan nan nan nan nan nan nan nan nan
300 296 299 314 310 311 312 311 312 311 321 324 324 318 309 304 304 303 301 299 294 295 297 298 298 294 294 295 295 294 297 299 297 297 299 299 301 304 306 306 305 307 306 302 303 302 302 306 307 309 310 309 309 302 296 nan nan nan nan nan nan nan nan nan nan nan nan nan nan nan nan nan nan nan nan nan nan nan nan nan nan nan nan nan nan
294 296 311 331 320 320 323 320 316 316 323 327 323 318 309 306 301 301 298 299 299 299 295 298 293 294 294 295 293 292 294 296 297 296 299 303 304 308 307 304 304 303 303 304 303 302 306 307 309 314 316 317 313 310 nan nan 298 nan 290 293 nan nan nan nan nan nan nan nan nan nan nan nan nan nan nan nan nan nan nan nan nan nan nan nan nan
299 307 334 343 331 326 326 322 319 319 326 328 328 319 317 308 303 300 297 295 297 298 295 293 291 291 297 298 297 295 291 294 296 298 303 309 308 308 307 303 300 298 299 300 303 308 309 310 315 318 319 319 318 317 314 nan 302 nan nan nan nan nan nan 294 290 288 287 284 281 276 276 nan nan nan nan nan nan nan nan 287 289 nan nan nan nan
304 316 330 346 339 333 331 328 326 330 333 336 330 326 323 313 310 307 300 294 296 298 295 292 294 297 302 301 299 299 301 304 305 311 315 313 309 308 305 305 300 300 300 303 304 306 308 309 314 321 320 319 318 317 316 313 303 nan nan 302 nan nan 295 299 298 298 293 nan nan nan 284 281 280 279 280 282 283 282 283 285 283 283 283 nan nan
302 312 327 347 351 347 346 342 344 343 343 342 335 329 324 321 319 317 310 308 300 297 298 297 301 304 302 304 304 304 305 311 314 314 313 308 307 305 305 305 305 306 310 313 317 312 310 311 314 319 319 316 317 318 316 312 307 303 303 300 nan 300 300 297 299 297 296 293 289 283 281 283 283 282 281 nan nan 284 285 285 285 285 284 nan nan
268 307 327 345 351 350 350 349 347 343 339 340 336 333 329 327 324 323 321 317 307 294 296 295 302 296 297 303 307 309 311 314 313 311 306 305 310 302 309 303 309 311 322 325 327 327 323 317 312 313 317 318 320 321 318 314 308 302 302 nan nan 293 294 nan 297 297 297 297 293 289 285 283 280 278 276 nan nan nan 285 285 285 284 283 287 290
219 285 337 350 349 347 346 342 340 337 335 337 340 337 338 333 327 323 316 303 300 300 293 299 302 298 299 303 307 308 308 310 310 308 308 315 307 310 317 316 315 319 325 329 333 336 336 329 318 308 312 320 322 321 319 315 309 303 302 nan nan 290 nan nan nan nan nan nan nan 289 287 284 282 280 279 nan nan 281 281 281 283 283 nan nan nan
224 247 352 342 339 339 337 332 326 322 324 331 337 341 335 330 332 332 319 315 308 299 292 289 291 295 302 308 312 310 313 312 318 316 317 318 318 318 326 324 322 321 325 332 336 339 339 340 335 322 318 321 324 323 318 311 306 304 301 301 297 287 284 292 299 299 293 282 281 284 283 284 284 284 nan nan 279 280 282 284 285 283 285 284 283
262 197 11 329 322 327 325 320 311 313 322 331 332 334 335 334 331 327 327 315 307 297 287 282 286 293 305 306 311 311 313 318 315 321 328 327 321 319 328 329 331 330 331 336 340 341 342 345 349 343 333 328 325 328 326 316 310 310 310 306 304 298 291 294 301 304 298 287 281 279 280 281 282 283 nan 281 279 279 nan nan nan nan 288 285 nan
271 268 99 326 306 309 309 313 317 317 318 325 326 331 332 334 332 330 336 329 306 299 288 275 284 283 294 297 306 313 319 329 330 334 333 327 322 317 315 325 332 334 333 340 345 349 349 353 354 351 346 341 336 336 335 332 329 331 330 325 318 307 300 301 307 310 305 294 286 281 279 279 nan nan 282 282 281 279 nan nan nan nan nan nan nan
261 263 139 270 289 292 286 299 304 305 311 324 325 325 325 326 331 337 343 331 318 311 287 284 293 294 292 302 312 315 328 335 339 335 336 333 327 323 322 327 335 335 338 342 348 350 353 356 357 355 351 346 342 342 340 339 340 340 338 334 326 316 308 306 307 309 308 302 293 285 281 280 nan 282 282 283 283 280 276 275 276 278 277 276 276
247 258 269 266 280 287 285 293 298 302 314 316 318 319 323 324 326 333 330 323 323 325 313 308 309 312 314 320 326 326 328 333 337 337 340 339 335 332 331 335 340 347 343 338 342 343 346 352 352 351 348 343 341 340 339 338 nan nan 330 325 320 315 311 310 309 307 306 301 295 287 281 279 280 279 280 280 nan nan nan 276 277 274 272 269 270
216 221 233 257 273 275 274 286 293 300 310 304 308 316 320 320 323 325 322 315 325 331 333 307 307 316 321 333 331 332 335 336 341 341 342 340 335 335 339 342 349 355 343 341 341 343 345 346 345 345 344 342 339 335 332 333 nan nan 328 324 321 318 314 312 310 308 306 302 297 290 285 281 279 278 277 nan nan nan nan nan 269 270 273 271 272
197 214 234 250 262 274 285 287 296 307 305 304 310 312 316 312 318 323 315 312 313 325 311 300 298 314 317 328 336 339 335 336 338 340 340 339 340 343 346 350 353 349 345 344 345 346 345 345 343 341 341 340 337 332 329 nan 333 333 330 327 326 324 321 317 315 314 313 307 298 291 287 284 280 278 277 275 nan nan 266 264 264 267 266 268 269
203 209 250 284 283 277 279 285 295 300 301 303 308 309 311 312 317 316 314 310 308 323 310 294 297 307 315 333 341 339 334 334 335 337 340 343 344 346 349 348 344 345 345 345 345 345 343 343 342 340 339 338 337 nan nan nan 331 333 332 330 328 329 326 321 317 314 312 306 296 291 289 285 284 282 276 268 265 270 271 271 271 269 265 264 266
214 223 246 262 270 275 287 293 295 302 303 307 305 304 303 307 313 310 313 313 312 309 307 308 304 317 326 327 331 333 334 333 336 339 343 346 347 347 347 345 342 343 344 344 342 339 338 339 339 337 335 335 336 333 327 nan nan 334 334 332 329 326 326 323 319 315 311 304 289 279 277 281 271 268 271 273 271 270 269 267 267 266 265 266 269
227 224 240 249 251 273 286 292 291 297 298 303 300 301 309 312 314 313 307 305 300 301 302 309 319 325 326 321 326 334 337 339 339 341 344 345 344 344 344 343 341 340 340 339 337 336 335 336 335 333 333 333 334 334 nan nan nan 331 333 329 326 324 325 323 320 316 311 303 291 281 280 279 278 273 274 275 272 273 273 270 270 271 273 273 274
nan 218 228 238 241 250 279 291 294 298 301 299 298 302 305 311 308 308 303 304 300 298 302 308 322 321 324 319 327 334 338 339 339 340 339 339 342 341 340 341 341 338 335 333 332 331 333 331 330 328 329 330 331 nan nan nan nan 331 329 327 325 323 321 322 321 317 312 306 293 281 276 279 281 277 274 275 279 281 281 283 280 279 279 277 276
nan 225 228 240 251 254 276 295 303 304 301 298 296 301 303 306 305 303 302 303 304 308 311 308 312 312 311 315 324 330 332 333 332 335 336 337 337 337 336 335 334 332 330 329 328 326 327 325 324 324 324 326 329 nan nan nan 326 328 328 326 326 325 323 323 322 318 314 308 298 286 283 284 283 283 281 283 287 292 291 286 284 281 281 286 290
243 239 236 241 253 261 279 297 296 294 295 300 300 300 300 299 296 295 293 301 305 307 304 305 315 308 308 313 319 328 330 329 332 333 331 330 332 331 330 327 325 324 324 325 322 322 322 319 319 321 321 323 328 nan nan 326 325 328 329 328 327 326 326 324 321 319 314 308 300 290 286 283 280 291 291 290 286 287 290 292 293 292 292 293 295
238 230 231 242 245 248 259 268 275 286 294 293 293 296 296 294 291 292 295 295 299 301 305 304 309 305 308 312 318 323 328 329 329 329 328 328 327 325 321 317 314 313 315 315 314 316 317 317 317 319 319 320 324 nan nan 326 324 325 324 323 325 326 326 325 322 319 314 310 303 294 289 289 290 292 289 289 289 291 292 291 291 291 290 291 292
248 234 227 234 240 248 258 264 272 279 279 282 288 289 289 288 289 292 291 291 296 299 302 304 307 308 309 312 315 320 324 325 324 325 325 325 323 319 316 313 311 310 311 311 311 312 314 316 317 317 317 319 322 nan nan nan 324 319 318 320 323 324 322 320 318 316 313 308 302 296 290 287 288 290 290 294 293 290 288 287 289 290 290 291 291
241 237 234 239 244 249 262 267 268 274 279 283 286 287 286 287 287 287 288 290 295 299 304 301 306 308 311 314 319 320 320 317 317 318 320 321 318 315 314 310 307 307 308 308 308 309 311 314 316 315 315 318 318 nan nan nan nan 315 314 314 322 321 319 318 315 314 311 305 299 289 283 283 279 281 286 286 284 287 288 287 285 287 288 290 293
238 239 236 236 240 246 253 259 265 272 276 280 282 284 283 282 283 283 285 289 293 298 303 301 304 307 308 310 312 313 313 313 313 312 315 317 317 312 310 307 305 306 307 308 309 310 309 311 314 314 317 317 320 318 nan nan nan 313 nan 315 320 319 320 319 314 311 307 301 294 291 292 291 292 293 292 293 nan nan nan nan 287 289 290 290 289
244 243 240 237 234 244 254 260 267 274 279 276 277 277 276 276 279 281 284 286 289 295 301 304 306 308 307 307 308 311 311 309 309 313 312 311 311 309 309 308 305 306 309 309 309 308 307 307 310 314 318 318 318 315 nan nan 312 312 nan 317 319 320 319 317 314 307 301 300 298 306 302 297 295 293 292 291 nan nan nan nan nan nan 291 290 nan
245 246 246 240 231 239 257 262 265 269 271 271 272 273 274 277 278 281 282 285 289 294 297 300 301 299 299 300 303 305 305 303 304 309 310 307 306 304 306 306 306 306 308 309 308 306 305 304 308 313 314 316 316 312 316 312 312 nan nan 318 318 317 319 315 305 302 300 298 298 298 299 292 288 288 291 291 nan nan nan nan 288 290 nan nan nan
240 240 244 237 228 232 251 263 268 266 267 269 271 271 275 277 280 283 285 286 287 286 288 289 291 295 296 298 299 300 299 297 296 299 303 302 299 300 302 304 306 309 310 308 307 307 307 308 309 309 309 313 317 311 313 313 nan nan nan 316 314 310 309 311 310 306 300 299 299 296 290 nan nan 290 291 nan nan nan nan nan 289 nan nan nan nan
237 238 242 236 227 231 242 252 255 257 261 265 266 271 274 276 279 280 282 283 282 284 286 287 288 290 292 294 295 296 295 292 292 295 297 300 301 303 305 306 310 311 310 308 309 309 308 307 308 311 312 315 314 313 311 nan nan nan nan 321 312 310 311 310 305 302 302 301 299 295 292 nan nan nan nan nan nan nan nan nan nan nan 285 nan nan
233 238 238 233 228 231 235 243 249 255 254 255 259 263 267 269 272 275 277 278 280 282 283 284 286 287 289 290 291 292 294 293 293 293 297 299 301 304 306 307 309 310 310 310 309 309 308 308 309 312 313 313 311 305 304 nan nan nan nan nan 310 312 306 303 303 303 302 300 301 297 292 nan nan nan nan nan nan nan nan nan nan nan nan nan nan
236 235 232 231 231 234 236 241 248 255 256 258 259 258 259 261 265 269 271 274 276 277 278 280 280 281 283 286 290 294 292 292 291 291 295 299 302 304 304 304 307 307 309 309 309 310 309 309 311 313 310 310 302 299 303 nan nan nan nan nan nan 308 298 306 306 307 307 306 305 299 291 nan nan nan nan nan nan nan nan nan nan nan nan nan nan
230 230 232 234 234 234 237 242 246 252 255 256 254 255 257 260 264 264 266 268 272 275 277 277 278 282 285 287 288 290 291 293 292 290 293 298 301 302 303 305 307 309 310 310 311 311 313 314 314 312 311 309 304 300 303 nan nan nan nan nan nan nan nan 306 307 308 304 299 298 297 292 nan nan nan nan nan nan nan nan nan nan nan nan nan nan
233 232 231 232 233 235 235 238 242 248 252 254 255 256 257 258 259 261 265 269 273 276 277 278 282 288 291 291 289 291 295 298 295 291 292 295 300 303 304 306 308 309 309 309 310 311 310 310 309 309 308 307 304 304 304 nan nan nan nan nan nan nan nan nan 308 309 305 301 294 289 nan nan nan nan nan nan nan nan nan nan nan nan nan nan nan
232 233 232 233 234 235 236 237 239 242 246 250 254 258 259 260 261 263 266 268 270 270 272 277 282 287 293 295 295 296 299 300 298 292 295 300 302 304 304 305 307 308 307 307 308 307 308 308 307 307 307 306 306 308 306 nan nan nan nan nan nan nan nan nan 296 297 nan nan nan 292 nan nan nan nan nan nan nan nan nan nan nan nan nan nan nan
232 231 231 232 235 238 240 242 242 243 247 250 252 255 258 261 265 267 268 270 270 271 272 278 284 289 292 295 297 295 296 295 296 299 301 301 301 303 303 305 306 306 305 305 305 305 305 nan nan nan nan 304 305 307 308 308 nan nan nan nan nan nan nan nan nan 299 294 nan nan nan nan nan nan nan nan nan nan nan nan nan nan nan nan nan nan
228 228 230 233 236 239 241 241 242 244 247 250 254 257 257 260 263 267 270 271 272 274 278 285 290 288 287 290 292 292 295 297 298 300 300 302 301 302 302 303 305 303 303 303 303 nan nan nan nan 306 305 304 304 307 309 311 309 308 307 307 nan nan nan nan nan nan nan nan nan nan nan nan nan nan nan nan nan nan nan nan nan nan nan nan nan
228 226 227 230 235 239 242 244 245 245 247 250 252 255 259 262 265 266 268 270 272 276 280 289 289 287 286 289 291 292 294 294 298 295 286 287 292 299 301 300 289 288 290 298 302 302 303 305 303 305 306 305 304 308 309 303 303 305 307 307 308 nan nan nan 298 nan 293 nan nan nan nan nan nan nan nan nan nan nan nan nan nan nan nan nan nan
228 227 228 230 232 236 239 242 244 246 249 251 253 255 258 260 262 264 267 269 272 278 285 289 288 288 288 288 289 292 292 294 295 288 290 287 282 281 279 289 290 nan nan nan nan 289 290 290 295 291 291 300 306 308 301 302 306 307 nan nan nan nan nan nan nan nan 291 296 299 301 302 304 nan nan nan nan nan nan nan nan nan nan nan nan nan
228 228 228 229 231 234 237 239 241 243 246 249 251 255 258 259 260 263 267 269 274 277 283 285 286 287 288 288 289 291 291 293 294 294 291 289 289 281 276 276 279 nan nan nan nan nan nan nan nan 296 nan nan 290 296 299 nan 303 302 nan nan nan nan nan nan nan nan nan nan nan nan nan nan nan nan nan nan nan nan nan nan nan nan nan nan nan